Notices

Please take our survey and provide feedback: https://eccc.sondage-survey.ca/f/LanguageSelection.aspx?s=442ca660-fcf1-47c0-95a9-59707d6fd709

Please note that for the Engineering Climate Datasets, IDF dataset is available through this link.  Intensity-Duration-Frequency (IDF) Files: Includes the latest version of short-duration rainfall Intensity-Duration-Frequency (IDF) statistics in the form of tables and graphs with accompanying documentation for various locations across Canada.  Current IDF files can be accessed through our station finder application or downloaded for each province and territory across Canada.  In addition, historical versions of IDF files are also available for download.  Updates of IDF files are provided approximately every two years depending on the availability of data.   Thank you for your patience as we enhance our systems.

Hourly Data Report for November 28, 2020

MUSKOKA
ONTARIO
Current Station Operator: NAVCAN

44°58'29.000" N
79°18'12.000" W
281.90 m
6115529
71532
YQA

Download Data

Hourly Data (November 2020)
Hourly Data Report for November 28, 2020
TIME
LST
Temp Definition
°C
Dew Point Definition
°C
Rel Hum Definition
%
Precip. Amount Definition
mm

Wind Dir Definition
10's deg

Wind Spd Definition
km/h
Visibility Definition
km
Stn Press Definition
kPa
Hmdx Definition


Wind Chill Definition


Weather Definition


00:00 2.5 2.4 99 LegendMM 18 8 2.4 97.90     Fog
01:00 2.6 2.5 99 LegendMM 23 13 2.8 97.88     Moderate Rain,Fog
02:00 2.8 2.5 98 LegendMM 21 8 6.4 97.84     Fog
03:00 2.7 2.4 98 LegendMM 22 9 6.4 97.86     Fog
04:00 2.4 1.7 95 LegendMM 24 11 11.3 97.86     Rain
05:00 1.8 1.4 97 LegendMM LegendMM 4 14.5 97.87     LegendNANA
06:00 1.2 0.6 96 LegendMM 31 8 16.1 97.91     LegendNANA
07:00 1.0 0.4 96 LegendMM 29 8 16.1 97.95     LegendNANA
08:00 0.9 0.3 96 LegendMM 30 4 16.1 98.00     LegendNANA
09:00 1.6 0.7 94 LegendMM 30 8 16.1 98.05     LegendNANA
10:00 2.9 0.7 85 LegendMM 30 11 16.1 98.09     LegendNANA
11:00 3.1 -0.7 76 LegendMM 28 17 16.1 98.09     LegendNANA
12:00 3.9 -1.0 71 LegendMM 25 21 16.1 98.06     LegendNANA
13:00 3.8 -1.4 69 LegendMM 25 21 16.1 98.00     LegendNANA
14:00 4.1 -1.5 67 LegendMM 25 17 16.1 97.98     LegendNANA
15:00 4.5 -2.4 61 LegendMM 23 21 16.1 97.95     LegendNANA
16:00 4.4 -2.3 62 LegendMM 20 11 16.1 97.92     LegendNANA
17:00 1.9 -2.7 71 LegendMM 22 5 16.1 97.94     LegendNANA
18:00 1.4 -2.8 74 LegendMM 21 9 16.1 97.96     LegendNANA
19:00 1.4 -3.5 70 LegendMM 21 11 16.1 97.95     LegendNANA
20:00 0.5 -3.6 74 LegendMM 21 11 16.1 97.96     LegendNANA
21:00 -0.4 -3.6 79 LegendMM 20 11 16.1 97.94   -4 LegendNANA
22:00 0.3 -3.6 75 LegendMM 21 9 16.1 97.96     LegendNANA
23:00 1.0 -2.9 75 LegendMM 22 11 16.1 97.99     LegendNANA

Notes on Data Quality.

Legend

  • E = Estimated
  • M = Missing
  • NA = Not Available*
  • [empty] = Indicates an unobserved value
Date modified: